Вернуться в каталог

STARLINK-32415

АктивенСвязьVLEO
NORAD 61861·PAYLOAD·🇺🇸 United States

Запущен Nov 7, 2024 с Cape Canaveral Space Force Station

Loading…

Ближайшие Пролёты (ближайшие 24 часа)

TLE

СвежийSource: CelesTrak SupGP

Эпоха: Sep 14, 2026, 21:28 UTC

1 61861C 24202S   26257.89493056  .00041246  00000+0  14933-2 0  2573
2 61861  43.0026 249.5732 0001259 280.9054  47.7781 15.27572710    18

Отслеживайте STARLINK-32415 в реальном времени с AllMySat

Download on the App Store